Regional Weather Roundup
Issued by NWS

Home | Current Version | Previous Version | Graphics & Text | Print | Product List | Glossary On
Versions: 1 2 3 4 5 6 7 8 9 10 11 12 13 14 15 16 17 18 19 20 21 22 23 24 25 26 27 28 29 30 31 32 33 34 35 36 37 38 39 40 41 42 43 44 45 46 47 48 49 50
283
ASUS45 KPSR 242110
RWRAZ

ARIZONA HOURLY REGIONAL WEATHER ROUNDUP
NATIONAL WEATHER SERVICE PHOENIX AZ
200 PM MST SUN JUL 24 2016

NOTE: FAIR INDICATES FEW OR NO CLOUDS BELOW 12,000 FEET WITH NO
SIGNIFICANT WEATHER AND/OR OBSTRUCTIONS TO VISIBILITY.

AZZ001>003-036-242200-
NORTHWEST ARIZONA

CITY           SKY/WX    TMP DP  RH WIND       PRES   REMARKS
BULLHEAD CITY  SUNNY    106  55  18 S12G23    29.80F HX 105
KINGMAN        SUNNY     98  50  19 SW24G33   30.03F
$$

AZZ004>008-015-016-018-242200-
NORTH CENTRAL ARIZONA

CITY           SKY/WX    TMP DP  RH WIND       PRES   REMARKS
GRAND CANYON   MOSUNNY   93  45  19 SW21      30.26F
WILLIAMS       MOSUNNY   88  46  23 W12       30.36F
PRESCOTT       MOSUNNY   91  52  26 W9        30.16F
FLAGSTAFF      MOSUNNY   83  49  30 VRB5      30.31F
PAYSON         SUNNY     91  52  25 W13G21    30.17F
PAGE           MOSUNNY   99  38  12 VRB6      30.01F
$$

AZZ009>014-017-242200-
NORTHEAST ARIZONA

CITY           SKY/WX    TMP DP  RH WIND       PRES   REMARKS
WINSLOW        PTSUNNY   94  46  19 SW14      30.11S
SAINT JOHNS    MOSUNNY   95  41  15 W12G20    30.14F
WINDOW ROCK    MOSUNNY   85  48  27 N24G32    30.26S
SHOW LOW       MOSUNNY   84  48  28 W10G16    30.24F
$$

AZZ023-242200-
GREATER PHOENIX AREA

CITY           SKY/WX    TMP DP  RH WIND       PRES   REMARKS
PHOENIX        PTSUNNY  102  58  23 W9G21     29.85F HX 102
BUCKEYE        SUNNY    104  55  20 SW10      29.87F HX 103
GLENDALE       MOSUNNY  106  61  23 S7G17     29.87F HX 107
LUKE AFB       SUNNY    104  58  22 W9        29.84F HX 104
DEER VALLEY    SUNNY    103  57  21 NW13      29.87F HX 102
SCOTTSDALE     SUNNY    100  57  23 MISG      29.89F
MESA-FALCON    MOSUNNY  N/A N/A N/A W9        29.86F
MESA-GATEWAY   MOSUNNY  100  59  25 NW7G18    29.89F HX 100
CHANDLER       SUNNY    102  57  22 W16       29.87F HX 101
$$

AZZ027-028-242200-
SOUTHWEST MARICOPA COUNTY AND PINAL COUNTY

CITY           SKY/WX    TMP DP  RH WIND       PRES   REMARKS
CASA GRANDE    SUNNY    102  57  22 NW6       29.91F HX 101
GILA BEND      FAIR     105  53  17 W7        29.83F HX 103
$$

AZZ503-504-507>509-242200-
SOUTHEAST ARIZONA

CITY           SKY/WX    TMP DP  RH WIND       PRES   REMARKS
TUCSON         SUNNY    100  56  23 N10       29.98F
DAVIS-MONTHAN  SUNNY     98  56  25 NW14      29.96F
RYAN FIELD     SUNNY     99  55  23 W14       29.96
NOGALES        MOSUNNY   94  58  29 NW12G17   30.06F
SIERRA VISTA   MOSUNNY   92  56  29 NW12G20   30.12F
DOUGLAS        MOSUNNY   95  58  28 NW13G20   30.04F
SAFFORD        SUNNY    101  55  21 NW16G33   29.92F
$$

AZZ020-021-025-026-031-242200-
SOUTHWEST ARIZONA

CITY           SKY/WX    TMP DP  RH WIND       PRES   REMARKS
YUMA           CLOUDY   108  60  21 S17G23    29.79F HX 109
$$

CAZ031-033-041-043-047-048-061-242200-
SOUTHERN CALIFORNIA

CITY           SKY/WX    TMP DP  RH WIND       PRES   REMARKS
DOWNTOWN L.A.  SUNNY     90  59  35 VRB7      29.91S
L.A. AIRPORT   MOSUNNY   82  65  56 W8        29.92S
SAN DIEGO      PTSUNNY   75  62  64 S8        29.93F
BURBANK        SUNNY     92  54  27 S13G20    29.92F
ONTARIO        MOSUNNY   95  55  26 W16       29.92S
RIVERSIDE      SUNNY     96  59  29 W14G22    29.91S
PALM SPRINGS   SUNNY    101  66  31 VRB5      29.82F HX 105
EL CENTRO NAS  SUNNY    105  63  25 CALM      29.77F HX 108
IMPERIAL       MOSUNNY  106  68  29 CALM      29.75F HX 113
BLYTHE         SUNNY    107  63  23 S15       29.80F HX 110
NEEDLES        SUNNY    108  60  21 S13G22    29.83F HX 109
$$

NVZ020-UTZ003-242200-
SOUTHERN NEVADA-UTAH

CITY           SKY/WX    TMP DP  RH WIND       PRES   REMARKS
LAS VEGAS      MOSUNNY  109  29   6 SW14G23   29.81F HX 101
SALT LAKE CITY SUNNY     94  29  10 N9        30.07F
$$

NMZ009-TXZ055-242200-
NEW MEXICO-WEST TEXAS

CITY           SKY/WX    TMP DP  RH WIND       PRES   REMARKS
ALBUQUERQUE    CLOUDY    96  44  16 E24       30.10S THUNDER
EL PASO        MOSUNNY  104  44  13 S9        29.95F
$$


........................KEY........................
SKY/WX - SKY CONDITION/WEATHER
TMP    - TEMPERATURE IN FAHRENHEIT
DP     - DEW POINT IN FAHRENHEIT
RH     - RELATIVE HUMIDITY IN PERCENT
WIND   - DIRECTION AND SPEED IN MILES PER HOUR (MPH)
VRB    - VARIABLE WIND DIRECTION
PRES   - MEAN SEA LEVEL PRESSURE IN INCHES OF MERCURY
         F - FALLING PRESSURE   R - RISING PRESSURE
         S - STEADY PRESSURE
VSB    - VISIBILITY IN MILES
HX     - HEAT INDEX IN FAHRENHEIT
WCI    - WIND CHILL INDEX IN FAHRENHEIT
TC     - TEMPERATURE IN CELSIUS WHICH IS ALSO KNOWN AS
         TEMPERATURE IN CENTIGRADE
AFB    - AIR FORCE BASE
         LUKE AFB IS LUKE AIR FORCE BASE
         DAVIS-MONTHAN IS DAVIS-MONTHAN AIR FORCE BASE
NAS    - NAVAL AIR STATION
         EL CENTRO NAS IS EL CENTRO NAVAL AIR STATION
N/A    - NOT AVAILABLE





USA.gov is the U.S. government's official web portal to all federal, state and local government web resources and services.